Location: Cajon Junction
(34.3117°N, 117.4748°W)
Time: 05:34:58
(UTC+00:00)

CZ-2C R/B - Pass Details

Date: 18 April 2024
Orbit: 666 x 779 km, 98.4° (Epoch: 28 May)

Event Time Altitude Azimuth Distance (km) Brightness Sun altitude
Rises 12:24:08 0° 355° (N) 3,268 6.0 -10.7°
Reaches altitude 10° 12:26:58 10° 340° (NNW) 2,334 5.0 -10.1°
Maximum altitude 12:30:45 21° 293° (WNW) 1,682 3.9 -9.4°
Enters shadow 12:34:20 11° 247° (WSW) 2,255 4.2 -8.7°
